Latest Coastal Weather Observations for Norfolk Island

IDN60701

Issued at 1:32 am EDT Friday 24 November 2017 (issued every 10 minutes, with the page automatically refreshed every 10 minutes)

About coastal observations | Map of coastal stations | Coastal observations for NSW | Marine services | Other Formats
Station Details ID: 200288 Name: NORFOLK ISLAND AERO Lat: -29.04 Lon: 167.94 Height: 111.73 m
Data from the previous 72 hours. | See also: Recent months at Norfolk Island
Date/Time
EDT
Temp
°C
Wind Pressure Rain since
9am
mm
Weather Cloud Vis
km
Sea
Height
m
Swell
Dir  Spd
kts
Gust
kts
hPa Trend Height
m
Period
s
Dir
24/01:30am 18.4 E 11 15 1021.5 - 0.0 - Partly cloudy 10 - - - -
24/01:28am 18.4 E 11 15 1021.4 - 0.0 - Partly cloudy 10 - - - -
24/01:15am 18.4 E 14 19 1021.3 - 0.0 - Partly cloudy 10 - - - -
24/01:00am 18.5 E 13 19 1021.2 - 0.0 - Partly cloudy 10 - - - -
24/12:30am 18.4 E 14 20 1021.5 - 0.0 - Partly cloudy 10 - - - -
24/12:23am 18.5 E 14 19 1021.6 - 0.0 - Partly cloudy 10 - - - -
24/12:00am 18.4 ENE 15 20 1021.8 - 0.0 - Cloudy 10 - - - -
 
Date/Time
EDT
Temp
°C
Wind Pressure Rain since
9am
mm
Weather Cloud Vis
km
Sea
Height
m
Swell
Dir  Spd
kts
Gust
kts
hPa Trend Height
m
Period
s
Dir
23/11:30pm 18.4 ENE 14 20 1022.3 - 0.0 - Partly cloudy 10 - - - -
23/11:14pm 18.5 ENE 15 20 1022.4 - 0.0 - Partly cloudy 10 - - - -
23/11:00pm 18.5 E 14 19 1022.6 - 0.0 - Partly cloudy 10 - - - -
23/10:30pm 18.7 ENE 14 18 1022.6 - 0.0 - Partly cloudy 10 - - - -
23/10:24pm 18.7 ENE 15 20 1022.7 - 0.0 - Partly cloudy 10 - - - -
23/10:20pm 18.6 ENE 16 21 1022.6 - 0.0 - Partly cloudy 10 - - - -
23/10:00pm 18.6 E 17 22 1022.6 - 0.0 - Partly cloudy 10 - - - -
23/09:30pm 18.9 ENE 16 21 1022.9 - 0.0 - Partly cloudy 10 - - - -
23/09:01pm 19.0 E 15 22 1022.8 - 0.0 - Partly cloudy 10 - - - -
23/09:00pm 19.0 E 15 22 1022.8 - 0.0 - Cloudy 10 - - - -
23/08:30pm 19.1 E 16 20 1022.7 - 0.0 - Partly cloudy 10 - - - -
23/08:11pm 19.0 E 16 24 1022.6 - 0.0 - Partly cloudy 10 - - - -
23/08:00pm 19.0 E 15 21 1022.4 - 0.0 - Partly cloudy 10 - - - -
23/07:58pm 19.0 E 15 21 1022.3 - 0.0 - Partly cloudy 10 - - - -
23/07:30pm 19.0 E 16 22 1022.1 - 0.0 - Partly cloudy 10 - - - -
23/07:17pm 18.9 E 15 26 1022.0 - 0.0 - Partly cloudy 10 - - - -
23/07:00pm 19.0 E 15 21 1022.1 - 0.0 - Partly cloudy 10 - - - -
23/06:30pm 19.1 E 14 18 1022.2 - 0.0 - Partly cloudy 10 - - - -
23/06:00pm 19.3 E 13 18 1021.9 - 0.0 - Mostly cloudy 10 - - - -
23/05:30pm 19.6 E 15 20 1021.5 - 0.0 - Cloudy 10 - - - -
23/05:00pm 20.1 E 15 21 1020.8 - 0.0 - Partly cloudy 10 - - - -
23/04:30pm 20.5 E 17 22 1020.8 - 0.0 - Partly cloudy 10 - - - -
23/04:00pm 21.1 E 16 24 1020.9 - 0.0 - Mostly clear 10 - - - -
23/03:30pm 21.0 E 18 26 1021.1 - 0.0 - Mostly clear 10 - - - -
23/03:00pm 21.1 E 19 26 1021.1 - 0.0 - Mostly clear 10 - - - -
23/02:37pm 21.7 E 15 25 1021.3 - 0.0 - Mostly clear 10 - - - -
23/02:30pm 21.4 E 18 25 1021.1 - 0.0 - Mostly clear 10 - - - -
23/02:00pm 21.9 E 18 26 1021.2 - 0.0 - Mostly clear 10 - - - -
23/01:30pm 21.9 E 17 26 1021.5 - 0.0 - Mostly clear 10 - - - -
23/01:18pm 22.0 E 17 27 1021.6 - 0.0 - Partly cloudy 10 - - - -
23/01:00pm 21.6 ENE 20 27 1021.5 - 0.0 - Mostly clear 10 - - - -
23/12:30pm 21.5 E 19 26 1021.4 - 0.0 - Partly cloudy 10 - - - -
23/12:01pm 22.0 ENE 19 29 1021.3 - 0.0 - Partly cloudy 10 - - - -
23/12:00pm 22.2 E 19 26 1021.4 - 0.0 - Cloudy 10 - - - -
23/11:30am 22.4 ENE 19 27 1021.6 - 0.0 - Partly cloudy 10 - - - -
23/11:00am 21.4 E 21 26 1021.4 - 0.0 - Partly cloudy 10 - - - -
23/10:30am 21.2 E 19 26 1021.5 - 0.0 - Mostly clear 10 - - - -
23/10:00am 20.9 E 19 25 1021.5 - 0.0 - Partly cloudy 10 - - - -
23/09:38am 20.3 ENE 17 27 1021.5 - 0.0 - Mostly cloudy 10 - - - -
23/09:30am 20.3 ENE 19 26 1021.5 - 0.0 - Mostly cloudy 10 - - - -
23/09:00am 20.8 E 19 23 1021.5 - 0.2 - Cloudy 10 - - - -
23/08:30am 20.8 ENE 17 25 1021.4 - 0.2 - Partly cloudy 10 - - - -
23/08:25am 20.9 E 18 28 1021.3 - 0.2 - Partly cloudy 10 - - - -
23/08:00am 20.3 ENE 17 25 1021.4 - 0.2 - Partly cloudy 10 - - - -
23/07:30am 20.0 E 16 22 1021.5 - 0.2 - Partly cloudy 10 - - - -
23/07:00am 19.9 E 15 20 1021.3 - 0.2 - Partly cloudy 10 - - - -
23/06:30am 19.4 E 15 21 1021.1 - 0.2 - Partly cloudy 10 - - - -
23/06:00am 19.3 E 15 19 1020.7 - 0.2 - Cloudy 10 - - - -
23/05:30am 18.9 E 14 19 1020.3 - 0.2 - Partly cloudy 10 - - - -
23/05:00am 18.8 E 14 19 1020.0 - 0.2 - Partly cloudy 10 - - - -
23/04:30am 18.7 E 12 17 1019.6 - 0.2 - Partly cloudy 10 - - - -
23/04:00am 18.7 E 12 16 1019.6 - 0.2 - Partly cloudy 10 - - - -
23/03:30am 18.6 E 13 19 1019.7 - 0.2 - Partly cloudy 10 - - - -
23/03:00am 18.7 E 11 16 1020.0 - 0.2 - Cloudy 10 - - - -
23/02:30am 18.6 E 13 19 1019.8 - 0.2 - Partly cloudy 10 - - - -
23/02:00am 18.4 E 13 18 1019.8 - 0.2 - Partly cloudy 10 - - - -
23/01:30am 18.2 E 15 22 1019.8 - 0.2 - Partly cloudy 10 - - - -
23/01:00am 18.5 E 15 20 1019.7 - 0.2 - Partly cloudy 10 - - - -
23/12:30am 18.3 E 15 20 1019.9 - 0.2 - Partly cloudy 10 - - - -
23/12:00am 18.5 E 14 20 1020.8 - 0.2 - Mostly cloudy 10 - - - -
 
Date/Time
EDT
Temp
°C
Wind Pressure Rain since
9am
mm
Weather Cloud Vis
km
Sea
Height
m
Swell
Dir  Spd
kts
Gust
kts
hPa Trend Height
m
Period
s
Dir
22/11:30pm 18.7 E 15 18 1020.9 - 0.2 - Partly cloudy 10 - - - -
22/11:00pm 18.3 E 15 20 1020.9 - 0.2 - Partly cloudy 10 - - - -
22/10:30pm 18.3 E 15 21 1021.0 - 0.2 - Partly cloudy 10 - - - -
22/10:00pm 18.3 E 13 18 1021.0 - 0.2 - Partly cloudy 10 - - - -
22/09:30pm 18.3 E 16 21 1020.8 - 0.2 - - 10 - - - -
22/09:03pm 18.4 E 15 25 1020.7 - 0.2 - Partly cloudy 10 - - - -
22/09:00pm 18.3 E 15 19 1020.7 - 0.2 - Mostly clear 10 - - - -
22/08:30pm 18.6 E 14 18 1020.6 - 0.2 - Partly cloudy 10 - - - -
22/08:00pm 18.4 E 14 19 1020.3 - 0.2 - - 10 - - - -
22/07:30pm 18.4 E 14 18 1020.0 - 0.2 - Partly cloudy 10 - - - -
22/07:00pm 18.6 E 14 18 1019.7 - 0.2 - Partly cloudy 10 - - - -
22/06:30pm 18.7 E 13 19 1019.5 - 0.2 - Partly cloudy 10 - - - -
22/06:00pm 19.1 E 14 22 1019.1 - 0.2 - Mostly cloudy 10 - - - -
22/05:30pm 19.8 E 15 21 1018.9 - 0.2 - Partly cloudy 10 - - - -
22/05:00pm 20.1 E 17 22 1018.5 - 0.2 - Partly cloudy 10 - - - -
22/04:30pm 20.5 E 15 21 1018.2 - 0.2 - - 10 - - - -
22/04:00pm 21.0 ENE 17 21 1018.2 - 0.2 - Partly cloudy 10 - - - -
22/03:30pm 21.4 E 16 22 1018.2 - 0.2 - Partly cloudy 10 - - - -
22/03:00pm 21.4 E 17 23 1018.0 - 0.2 - Cloudy 10 - - - -
22/02:30pm 21.6 E 18 25 1018.2 - 0.2 - Partly cloudy 10 - - - -
22/02:00pm 21.7 ENE 18 26 1018.2 - 0.2 - Partly cloudy 10 - - - -
22/01:30pm 22.2 ENE 20 26 1018.2 - 0.2 - Partly cloudy 10 - - - -
22/01:19pm 21.7 E 16 26 1018.3 - 0.2 - Partly cloudy 10 - - - -
22/01:00pm 20.6 E 15 20 1018.4 - 0.2 - Partly cloudy 10 - - - -
22/12:30pm 21.7 E 19 25 1018.5 - 0.2 - Partly cloudy 10 - - - -
22/12:00pm 22.2 ENE 19 26 1018.5 - 0.0 - Cloudy 10 - - - -
22/11:30am 21.4 E 18 23 1018.8 - 0.0 - Partly cloudy 10 - - - -
22/11:00am 21.1 E 17 23 1018.6 - 0.0 - Partly cloudy 10 - - - -
22/10:30am 22.1 ENE 18 24 1019.0 - 0.0 - Partly cloudy 10 - - - -
22/10:00am 21.2 ENE 16 22 1019.0 - 0.0 - Partly cloudy 10 - - - -
22/09:30am 21.1 E 15 21 1018.7 - 0.0 - Partly cloudy 10 - - - -
22/09:00am 21.0 E 15 20 1018.5 - 0.2 - Mostly cloudy 10 - - - -
22/08:30am 21.1 E 17 21 1018.4 - 0.2 - Partly cloudy 10 - - - -
22/08:00am 20.6 E 16 23 1018.2 - 0.2 - Partly cloudy - - - - -
22/07:30am 20.5 E 13 17 1018.2 - 0.2 - Partly cloudy 10 - - - -
22/07:00am 19.9 E 13 18 1018.0 - 0.2 - Partly cloudy 10 - - - -
22/06:30am 19.3 E 11 16 1017.7 - 0.2 - Partly cloudy 10 - - - -
22/06:00am 18.5 E 12 15 1017.3 - 0.2 - Partly cloudy 10 - - - -
22/05:30am 17.5 ENE 9 11 1017.2 - 0.2 - Partly cloudy 10 - - - -
22/05:00am 17.7 ENE 10 15 1017.0 - 0.2 - Partly cloudy 10 - - - -
22/04:30am 17.5 ENE 10 14 1016.7 - 0.2 - Partly cloudy 10 - - - -
22/04:00am 16.9 ENE 7 9 1016.6 - 0.2 - Partly cloudy 10 - - - -
22/03:30am 17.1 E 7 8 1016.6 - 0.2 - Partly cloudy 10 - - - -
22/03:00am 17.3 E 6 8 1016.5 - 0.2 - Mostly cloudy 10 - - - -
22/02:30am 17.4 E 7 9 1016.5 - 0.2 - Partly cloudy 10 - - - -
22/02:00am 17.1 ENE 7 9 1016.7 - 0.2 - Partly cloudy 10 - - - -
22/01:30am 16.8 E 6 7 1016.7 - 0.2 - Partly cloudy 10 - - - -
22/01:00am 17.2 ENE 7 9 1016.9 - 0.2 - Partly cloudy 10 - - - -
22/12:54am 17.3 ENE 7 9 1016.9 - 0.2 - Partly cloudy 10 - - - -
22/12:30am 16.7 ENE 6 8 1017.1 - 0.2 - Partly cloudy 10 - - - -
22/12:15am 16.2 ENE 5 6 1017.2 - 0.2 - Partly cloudy 10 - - - -
22/12:00am 16.2 ENE 5 6 1017.3 - 0.2 - Mostly clear 10 - - - -
 
Date/Time
EDT
Temp
°C
Wind Pressure Rain since
9am
mm
Weather Cloud Vis
km
Sea
Height
m
Swell
Dir  Spd
kts
Gust
kts
hPa Trend Height
m
Period
s
Dir
21/11:30pm 16.4 E 6 7 1017.4 - 0.2 - Partly cloudy 10 - - - -
21/11:00pm 16.5 ENE 6 7 1017.7 - 0.2 - - 10 - - - -
21/10:30pm 16.4 ENE 5 6 1018.0 - 0.2 - Partly cloudy 10 - - - -
21/10:00pm 16.3 ENE 5 7 1017.9 - 0.2 - Partly cloudy 10 - - - -
21/09:30pm 16.0 ENE 6 7 1017.9 - 0.2 - Partly cloudy 10 - - - -
21/09:00pm 16.2 ENE 6 6 1017.8 - 0.2 - Mostly clear 10 - - - -
21/08:30pm 16.1 E 5 6 1017.6 - 0.2 - Partly cloudy 10 - - - -
21/08:00pm 16.7 ENE 4 6 1017.5 - 0.2 - Partly cloudy 10 - - - -
21/07:30pm 16.6 ENE 5 6 1017.3 - 0.2 - Partly cloudy 10 - - - -
21/07:00pm 16.9 E 5 5 1016.9 - 0.2 - - 10 - - - -
21/06:30pm 17.4 ENE 5 6 1016.6 - 0.2 - Partly cloudy 10 - - - -
21/06:00pm 18.7 ENE 6 7 1016.4 - 0.2 - Mostly clear 10 - - - -
21/05:30pm 19.1 E 6 8 1016.0 - 0.2 - Partly cloudy 10 - - - -
21/05:00pm 19.2 E 6 8 1015.7 - 0.2 - Partly cloudy 10 - - - -
21/04:30pm 18.9 ENE 6 7 1015.5 - 0.2 - Partly cloudy 10 - - - -
21/04:00pm 19.6 ENE 7 9 1015.5 - 0.2 - Partly cloudy 10 - - - -
21/03:30pm 19.5 ESE 7 9 1015.5 - 0.2 - Partly cloudy 10 - - - -
21/03:00pm 19.7 ENE 6 8 1015.7 - 0.2 - Cloudy 10 - - - -
21/02:30pm 19.2 E 6 8 1015.6 - 0.2 - Partly cloudy 10 - - - -
21/02:00pm 18.9 NNE 2 4 1015.8 - 0.2 - Partly cloudy 10 - - - -
21/01:30pm 18.7 W 7 8 1015.9 - 0.2 - Mostly cloudy 10 - - - -
21/01:00pm 18.5 NW 5 6 1016.0 - 0.2 - Mostly cloudy 10 - - - -
21/12:30pm 18.4 WSW 7 8 1016.1 - 0.2 - Mostly cloudy 10 - - - -
21/12:25pm 18.5 W 6 8 1016.1 - 0.2 - Mostly cloudy 10 - - - -
21/12:00pm 18.3 WNW 5 7 1016.2 - 0.2 Rain Cloudy 10 - - - -
21/11:58am 18.4 WNW 5 7 1016.2 - 0.2 - Partly cloudy 10 - - - -
21/11:47am 19.0 NW 5 8 1016.1 - 0.2 - Partly cloudy 10 - - - -
21/11:30am 18.4 NNW 5 9 1016.2 - 0.2 - Mostly cloudy 10 - - - -
21/11:00am 18.6 WNW 5 7 1016.2 - 0.2 - Mostly clear 10 - - - -
21/10:30am 18.9 NW 4 6 1016.4 - 0.2 - Mostly clear 10 - - - -
21/10:00am 18.5 ESE 4 7 1016.2 - 0.0 - Mostly clear 10 - - - -
21/09:30am 18.2 S 7 10 1016.1 - 0.0 - Partly cloudy 10 - - - -
21/09:00am 18.0 SSW 5 8 1016.1 - 3.6 - Cloudy 10 - - - -
21/08:30am 18.4 SE 5 7 1016.0 - 3.6 - Mostly clear 10 - - - -
21/08:03am 18.0 SW 7 8 1015.8 - 3.6 - Partly cloudy 10 - - - -
21/08:00am 18.0 SW 6 8 1015.8 - 3.6 - Partly cloudy 10 - - - -
21/07:30am 18.1 ESE 2 4 1015.8 - 3.6 - Partly cloudy 10 - - - -
21/07:00am 18.0 NW 1 4 1015.9 - 3.6 - Partly cloudy 10 - - - -
21/06:32am 16.9 SSW 2 4 1015.7 - 3.6 - Partly cloudy 10 - - - -
21/06:30am 16.8 S 1 4 1015.7 - 3.6 - Partly cloudy 9 - - - -
21/06:00am 16.0 CALM 0 0 1015.3 - 3.0 Rain Cloudy 7 - - - -
21/05:59am 16.0 CALM 0 0 1015.3 - 3.0 - Partly cloudy 8 - - - -
21/05:30am 16.1 SE 3 5 1015.2 - 1.8 - Partly cloudy 3 - - - -
21/05:29am 16.2 SE 3 5 1015.1 - 1.8 - Partly cloudy 3 - - - -
21/05:00am 16.0 NE 5 7 1014.7 - 1.0 - Partly cloudy 3 - - - -
21/04:51am 15.9 ENE 4 7 1014.6 - 0.2 - Partly cloudy 6 - - - -
21/04:30am 15.8 CALM 0 0 1014.3 - 0.2 - Partly cloudy 10 - - - -
21/04:00am 15.6 CALM 0 0 1013.9 - 0.2 - Partly cloudy 10 - - - -
21/03:30am 15.6 CALM 0 0 1013.7 - 0.2 - Partly cloudy 10 - - - -
21/03:00am 15.6 CALM 0 0 1013.9 - 0.2 - Cloudy 10 - - - -
21/02:30am 15.1 ENE 5 5 1014.0 - 0.2 - Partly cloudy 10 - - - -
21/02:00am 15.5 NE 3 4 1014.4 - 0.2 - Partly cloudy 10 - - - -
21/01:30am 15.8 NE 5 6 1014.3 - 0.2 - Cloudy 10 - - - -

Other Formats:

Comma delimited format used in spreadsheet applications
http://www.bom.gov.au/fwo/IDN60701/IDN60701.94996.axf

JavaScript Object Notation format (JSON) in row-major order
http://www.bom.gov.au/fwo/IDN60701/IDN60701.94996.json